SIA403 VIDP-WSSS

Flight info

Callsign SIA403
Flight time N/A
Altitude 37000
Route ITBAN7H ITBAN L759 BBS/N0494F390 L759 PUT B579 VPL W531 VIH A464 VKL Y507 MAKNA Y511 TOPOR A464 ARAMA ARAMA1A
Aircraft A388/J-SADE2E3FGHIJ3J4J5M1RWXY/LB1D1

Departure

Time N/A
Airport Indira Gandhi International Airport (VIDP)

Arrival

Time 2026-05-06 22:44
Airport Singapore Changi Airport (WSSS)
Time Latitude Longitude Altitude Speed Heading
2026-05-06 22:36 1.07455 103.74603 5252 ft 242 kts 84°
2026-05-06 22:36 1.07662 103.76241 4923 ft 240 kts 84°
2026-05-06 22:37 1.07868 103.77891 4592 ft 236 kts 84°
2026-05-06 22:37 1.08061 103.79428 4229 ft 218 kts 84°
2026-05-06 22:37 1.08246 103.80888 4072 ft 209 kts 84°
2026-05-06 22:37 1.08428 103.82327 4007 ft 209 kts 84°
2026-05-06 22:38 1.08610 103.83765 4008 ft 209 kts 84°
2026-05-06 22:38 1.08849 103.85195 4005 ft 210 kts 73°
2026-05-06 22:38 1.09632 103.86408 3997 ft 208 kts 45°
2026-05-06 22:38 1.10794 103.87231 3726 ft 207 kts 29°
2026-05-06 22:39 1.12095 103.87853 3620 ft 209 kts 24°
2026-05-06 22:39 1.13417 103.88422 3579 ft 209 kts 24°
2026-05-06 22:39 1.14750 103.89011 3402 ft 209 kts 24°
2026-05-06 22:39 1.16071 103.89605 3077 ft 208 kts 24°
2026-05-06 22:40 1.17390 103.90179 2740 ft 206 kts 22°
2026-05-06 22:40 1.18712 103.90720 2545 ft 206 kts 23°
2026-05-06 22:40 1.20027 103.91282 2522 ft 205 kts 24°
2026-05-06 22:40 1.21340 103.91848 2522 ft 206 kts 24°
2026-05-06 22:41 1.23828 103.92923 2343 ft 181 kts 24°
2026-05-06 22:41 1.24954 103.93408 2123 ft 173 kts 24°
2026-05-06 22:41 1.26052 103.93883 1902 ft 171 kts 24°
2026-05-06 22:42 1.27142 103.94354 1683 ft 170 kts 24°
2026-05-06 22:42 1.28198 103.94810 1434 ft 157 kts 24°
2026-05-06 22:42 1.29160 103.95211 1208 ft 145 kts 23°
2026-05-06 22:42 1.30071 103.95633 1053 ft 144 kts 27°
2026-05-06 22:43 1.30978 103.96051 909 ft 144 kts 24°
2026-05-06 22:43 1.31875 103.96456 716 ft 143 kts 23°
2026-05-06 22:43 1.32793 103.96819 567 ft 143 kts 33°
2026-05-06 22:43 1.33707 103.97233 381 ft 141 kts 31°
2026-05-06 22:44 1.34592 103.97623 172 ft 139 kts 22°
2026-05-06 22:44 1.35463 103.97981 43 ft 126 kts 23°
2026-05-06 22:44 1.36127 103.98265 34 ft 73 kts 22°
2026-05-06 22:44 1.36372 103.98368 36 ft 27 kts 22°
2026-05-06 22:45 1.36557 103.98449 37 ft 28 kts 32°
2026-05-06 22:45 1.36705 103.98573 36 ft 28 kts 47°
2026-05-06 22:45 1.36745 103.98646 34 ft 6 kts 102°